| time (UTC) | temp F | wind direction | speed MPH | gust MPH | rain 1hr in | rain 24hr in | rain mn in | humidity % | barometer mb |
| 20260906183052 | 73 | 0 | 1.0 | 3.0 | 0.00 | 0.00 | 0.00 | 65 | 1020.7 |
| 20260906182546 | 74 | 9 | 2.0 | 5.0 | 0.00 | 0.00 | 0.00 | 63 | 1020.5 |
| 20260906182043 | 73 | 320 | 3.0 | 5.0 | 0.00 | 0.00 | 0.00 | 64 | 1020.4 |
| 20260906181538 | 74 | 28 | 2.0 | 9.0 | 0.00 | 0.00 | 0.00 | 61 | 1020.6 |
| 20260906181034 | 76 | 344 | 2.0 | 7.0 | 0.00 | 0.00 | 0.00 | 60 | 1020.6 |
| 20260906180528 | 75 | 72 | 3.0 | 3.0 | 0.00 | 0.00 | 0.00 | 63 | 1020.7 |
| 20260906180027 | 73 | 335 | 2.0 | 8.0 | 0.00 | 0.00 | 0.00 | 63 | 1021.0 |
| 20260906175527 | 74 | 307 | 4.0 | 6.0 | 0.00 | 0.00 | 0.00 | 61 | 1020.7 |
| 20260906175026 | 76 | 36 | 3.0 | 5.0 | 0.00 | 0.00 | 0.00 | 61 | 1021.1 |
| 20260906174525 | 75 | 25 | 1.0 | 4.0 | 0.00 | 0.00 | 0.00 | 61 | 1021.1 |
| 20260906174020 | 74 | 28 | 2.0 | 5.0 | 0.00 | 0.00 | 0.00 | 63 | 1021.2 |
| 20260906173515 | 74 | 20 | 3.0 | 6.0 | 0.00 | 0.00 | 0.00 | 61 | 1021.1 |
| 20260906173011 | 73 | 350 | 2.0 | 6.0 | 0.00 | 0.00 | 0.00 | 62 | 1021.4 |
| 20260906172505 | 73 | 7 | 1.0 | 5.0 | 0.00 | 0.00 | 0.00 | 64 | 1021.2 |
| 20260906172000 | 75 | 309 | 4.0 | 6.0 | 0.00 | 0.00 | 0.00 | 59 | 1021.2 |
| 20260906171455 | 75 | 105 | 3.0 | 4.0 | 0.00 | 0.00 | 0.00 | 60 | 1021.3 |
| 20260906170950 | 74 | 340 | 2.0 | 4.0 | 0.00 | 0.00 | 0.00 | 63 | 1021.4 |
| 20260906170447 | 76 | 94 | 3.0 | 5.0 | 0.00 | 0.00 | 0.00 | 61 | 1021.3 |
| 20260906165944 | 76 | 20 | 2.0 | 4.0 | 0.00 | 0.00 | 0.00 | 60 | 1021.5 |
| 20260906165442 | 76 | 64 | 3.0 | 4.0 | 0.00 | 0.00 | 0.00 | 60 | 1021.4 |
| 20260906164938 | 74 | 37 | 2.0 | 4.0 | 0.00 | 0.00 | 0.00 | 63 | 1021.2 |
| 20260906164436 | 73 | 16 | 2.0 | 5.0 | 0.00 | 0.00 | 0.00 | 64 | 1021.7 |
| 20260906163933 | 73 | 92 | 4.0 | 6.0 | 0.00 | 0.00 | 0.00 | 63 | 1021.5 |
| 20260906163428 | 75 | 153 | 3.0 | 5.0 | 0.00 | 0.00 | 0.00 | 62 | 1021.4 |
| 20260906162927 | 74 | 27 | 4.0 | 9.0 | 0.00 | 0.00 | 0.00 | 63 | 1021.5 |
| 20260906162425 | 73 | 95 | 3.0 | 4.0 | 0.00 | 0.00 | 0.00 | 66 | 1021.6 |
| 20260906161921 | 73 | 54 | 2.0 | 5.0 | 0.00 | 0.00 | 0.00 | 65 | 1021.5 |
| 20260906161420 | 72 | 7 | 2.0 | 5.0 | 0.00 | 0.00 | 0.00 | 64 | 1021.6 |
| 20260906160919 | 73 | 5 | 5.0 | 9.0 | 0.00 | 0.00 | 0.00 | 63 | 1021.4 |
| 20260906160413 | 74 | 311 | 4.0 | 5.0 | 0.00 | 0.00 | 0.00 | 63 | 1021.4 |
| 20260906155911 | 73 | 57 | 2.0 | 4.0 | 0.00 | 0.00 | 0.00 | 67 | 1021.5 |
| 20260906155405 | 72 | 357 | 2.0 | 5.0 | 0.00 | 0.00 | 0.00 | 69 | 1021.4 |
| 20260906154901 | 72 | 99 | 3.0 | 6.0 | 0.00 | 0.00 | 0.00 | 65 | 1021.6 |
| 20260906154355 | 71 | 88 | 3.0 | 5.0 | 0.00 | 0.00 | 0.00 | 71 | 1021.3 |
| 20260906153854 | 72 | 71 | 2.0 | 4.0 | 0.00 | 0.00 | 0.00 | 69 | 1021.2 |
| 20260906153353 | 73 | 330 | 3.0 | 5.0 | 0.00 | 0.00 | 0.00 | 72 | 1021.3 |
| 20260906152849 | 72 | 80 | 0.0 | 5.0 | 0.00 | 0.00 | 0.00 | 72 | 1021.4 |
| 20260906152349 | 72 | 335 | 1.0 | 4.0 | 0.00 | 0.00 | 0.00 | 74 | 1021.2 |
| 20260906151848 | 71 | 20 | 1.0 | 9.0 | 0.00 | 0.00 | 0.00 | 76 | 1021.5 |
| 20260906151344 | 71 | 356 | 2.0 | 4.0 | 0.00 | 0.00 | 0.00 | 77 | 1021.4 |
| 20260906150840 | 71 | 93 | 2.0 | 3.0 | 0.00 | 0.00 | 0.00 | 79 | 1021.2 |
| 20260906150335 | 70 | 66 | 2.0 | 4.0 | 0.00 | 0.00 | 0.00 | 79 | 1021.2 |
| 20260906145834 | 69 | 344 | 2.0 | 3.0 | 0.00 | 0.00 | 0.00 | 81 | 1021.0 |
| 20260906145333 | 68 | 91 | 1.0 | 7.0 | 0.00 | 0.00 | 0.00 | 83 | 1021.3 |
| 20260906144828 | 68 | 135 | 0.0 | 4.0 | 0.00 | 0.00 | 0.00 | 85 | 1021.2 |
| 20260906144323 | 68 | 62 | 0.0 | 5.0 | 0.00 | 0.00 | 0.00 | 86 | 1021.1 |
| 20260906143823 | 67 | 335 | 2.0 | 4.0 | 0.00 | 0.00 | 0.00 | 87 | 1021.1 |
| 20260906143319 | 67 | 47 | 1.0 | 5.0 | 0.00 | 0.00 | 0.00 | 87 | 1021.2 |
| 20260906142815 | 66 | 98 | 3.0 | 5.0 | 0.00 | 0.00 | 0.00 | 90 | 1021.1 |
| 20260906142310 | 66 | 351 | 3.0 | 3.0 | 0.00 | 0.00 | 0.00 | 93 | 1021.2 |
| 20260906141809 | 65 | 267 | 0.0 | 6.0 | 0.00 | 0.00 | 0.00 | 94 | 1021.0 |
| 20260906141304 | 65 | 29 | 2.0 | 3.0 | 0.00 | 0.00 | 0.00 | 96 | 1021.1 |
| 20260906140802 | 64 | 29 | 3.0 | 6.0 | 0.00 | 0.00 | 0.00 | 97 | 1021.1 |
| 20260906140257 | 64 | 26 | 2.0 | 5.0 | 0.00 | 0.00 | 0.00 | 98 | 1021.3 |
| 20260906135755 | 63 | 91 | 2.0 | 3.0 | 0.00 | 0.00 | 0.00 | 99 | 1021.1 |
| 20260906135250 | 63 | 39 | 1.0 | 7.0 | 0.00 | 0.00 | 0.00 | 99 | 1021.2 |
| 20260906134746 | 62 | 345 | 0.0 | 5.0 | 0.00 | 0.00 | 0.00 | 99 | 1021.1 |
| 20260906134241 | 62 | 32 | 1.0 | 7.0 | 0.00 | 0.00 | 0.00 | 99 | 1021.3 |
| 20260906133736 | 62 | 336 | 1.0 | 5.0 | 0.00 | 0.00 | 0.00 | 99 | 1021.2 |
| 20260906133232 | 62 | 89 | 2.0 | 4.0 | 0.00 | 0.00 | 0.00 | 99 | 1021.0 |
| 20260906132727 | 61 | 334 | 3.0 | 4.0 | 0.00 | 0.00 | 0.00 | 99 | 1021.1 |
| 20260906132222 | 60 | 66 | 0.0 | 2.0 | 0.00 | 0.00 | 0.00 | 99 | 1021.2 |
| 20260906131718 | 60 | 299 | 1.0 | 5.0 | 0.00 | 0.00 | 0.00 | 99 | 1021.2 |
| 20260906131213 | 60 | 97 | 2.0 | 3.0 | 0.00 | 0.00 | 0.00 | 99 | 1021.1 |
| 20260906130708 | 60 | 3 | 0.0 | 3.0 | 0.00 | 0.00 | 0.00 | 99 | 1021.2 |
| 20260906130203 | 59 | 89 | 1.0 | 2.0 | 0.00 | 0.00 | 0.00 | 99 | 1021.1 |
| 20260906125701 | 59 | 62 | 0.0 | 2.0 | 0.00 | 0.00 | 0.00 | 99 | 1021.0 |
| 20260906125200 | 59 | 101 | 1.0 | 3.0 | 0.00 | 0.00 | 0.00 | 99 | 1020.9 |
| 20260906124655 | 59 | 74 | 0.0 | 2.0 | 0.00 | 0.00 | 0.00 | 99 | 1021.0 |
| 20260906124150 | 58 | 59 | 0.0 | 2.0 | 0.00 | 0.00 | 0.00 | 99 | 1021.0 |
| 20260906123649 | 58 | 93 | 1.0 | 1.0 | 0.00 | 0.00 | 0.00 | 99 | 1020.7 |
| 20260906123145 | 57 | 82 | 1.0 | 1.0 | 0.00 | 0.00 | 0.00 | 99 | 1020.9 |
| 20260906122644 | 57 | 140 | 1.0 | 2.0 | 0.00 | 0.00 | 0.00 | 99 | 1020.9 |
| 20260906122140 | 57 | 111 | 1.0 | 2.0 | 0.00 | 0.00 | 0.00 | 99 | 1020.7 |
| 20260906121636 | 57 | 134 | 0.0 | 2.0 | 0.00 | 0.00 | 0.00 | 99 | 1020.7 |
| 20260906121132 | 57 | 113 | 0.0 | 2.0 | 0.00 | 0.00 | 0.00 | 99 | 1020.4 |
| 20260906120628 | 56 | 108 | 1.0 | 2.0 | 0.00 | 0.00 | 0.00 | 99 | 1020.6 |
| 20260906120125 | 56 | 98 | 0.0 | 2.0 | 0.00 | 0.00 | 0.00 | 99 | 1020.3 |
| 20260906115625 | 56 | 119 | 0.0 | 2.0 | 0.00 | 0.00 | 0.00 | 99 | 1020.1 |
| 20260906115121 | 56 | 103 | 0.0 | 2.0 | 0.00 | 0.00 | 0.00 | 99 | 1020.2 |
| 20260906114619 | 56 | 89 | 0.0 | 2.0 | 0.00 | 0.00 | 0.00 | 99 | 1020.2 |
| 20260906114115 | 56 | 132 | 0.0 | 2.0 | 0.00 | 0.00 | 0.00 | 99 | 1020.3 |
| 20260906113615 | 55 | 76 | 0.0 | 1.0 | 0.00 | 0.00 | 0.00 | 99 | 1020.3 |
| 20260906113110 | 55 | 89 | 0.0 | 1.0 | 0.00 | 0.00 | 0.00 | 99 | 1020.1 |
| 20260906112609 | 55 | 66 | 0.0 | 1.0 | 0.00 | 0.00 | 0.00 | 99 | 1020.0 |
| 20260906112106 | 55 | 89 | 0.0 | 1.0 | 0.00 | 0.00 | 0.00 | 99 | 1019.9 |
| 20260906111605 | 55 | 115 | 1.0 | 1.0 | 0.00 | 0.00 | 0.00 | 99 | 1019.9 |
| 20260906111100 | 55 | 89 | 0.0 | 1.0 | 0.00 | 0.00 | 0.00 | 99 | 1019.7 |
| 20260906110600 | 55 | 73 | 0.0 | 2.0 | 0.00 | 0.00 | 0.00 | 99 | 1019.9 |
| 20260906110100 | 55 | 131 | 0.0 | 1.0 | 0.00 | 0.00 | 0.00 | 99 | 1020.0 |
| 20260906105554 | 55 | 89 | 1.0 | 2.0 | 0.00 | 0.00 | 0.00 | 99 | 1019.9 |
| 20260906105051 | 55 | 66 | 0.0 | 2.0 | 0.00 | 0.00 | 0.00 | 99 | 1019.9 |
| 20260906104549 | 55 | 86 | 1.0 | 2.0 | 0.00 | 0.00 | 0.00 | 99 | 1019.9 |
| 20260906104044 | 55 | 89 | 0.0 | 2.0 | 0.00 | 0.00 | 0.00 | 99 | 1020.0 |
| 20260906103542 | 55 | 102 | 0.0 | 2.0 | 0.00 | 0.00 | 0.00 | 99 | 1020.0 |
| 20260906103038 | 55 | 120 | 1.0 | 2.0 | 0.00 | 0.00 | 0.00 | 99 | 1019.9 |
| 20260906102537 | 55 | 98 | 0.0 | 1.0 | 0.00 | 0.00 | 0.00 | 99 | 1019.9 |
| 20260906102033 | 55 | 125 | 0.0 | 1.0 | 0.00 | 0.00 | 0.00 | 99 | 1019.8 |
| 20260906101527 | 55 | 66 | 1.0 | 1.0 | 0.00 | 0.00 | 0.00 | 99 | 1019.5 |
| 20260906101022 | 55 | 50 | 0.0 | 1.0 | 0.00 | 0.00 | 0.00 | 99 | 1019.6 |
| 20260906100518 | 55 | 124 | 0.0 | 1.0 | 0.00 | 0.00 | 0.00 | 99 | 1019.5 |
| 20260906100012 | 55 | 89 | 0.0 | 2.0 | 0.00 | 0.00 | 0.00 | 99 | 1019.5 |
| 20260906095507 | 56 | 110 | 1.0 | 2.0 | 0.00 | 0.00 | 0.00 | 99 | 1019.5 |
| 20260906095003 | 56 | 115 | 1.0 | 2.0 | 0.00 | 0.00 | 0.00 | 99 | 1019.5 |
| 20260906094501 | 55 | 80 | 0.0 | 1.0 | 0.00 | 0.00 | 0.00 | 99 | 1019.6 |
| 20260906093957 | 55 | 74 | 0.0 | 1.0 | 0.00 | 0.00 | 0.00 | 99 | 1019.5 |
| 20260906093453 | 55 | 87 | 0.0 | 1.0 | 0.00 | 0.00 | 0.00 | 99 | 1019.4 |
| 20260906092948 | 56 | 86 | 0.0 | 1.0 | 0.00 | 0.00 | 0.00 | 99 | 1019.3 |
| 20260906092448 | 56 | 130 | 0.0 | 1.0 | 0.00 | 0.00 | 0.00 | 99 | 1019.4 |
| 20260906091943 | 56 | 89 | 0.0 | 2.0 | 0.00 | 0.00 | 0.00 | 99 | 1019.2 |
| 20260906091438 | 56 | 115 | 0.0 | 1.0 | 0.00 | 0.00 | 0.00 | 99 | 1019.4 |
| 20260906090935 | 56 | 104 | 0.0 | 1.0 | 0.00 | 0.00 | 0.00 | 99 | 1019.3 |
| 20260906090430 | 56 | 77 | 0.0 | 2.0 | 0.00 | 0.00 | 0.00 | 99 | 1019.5 |
| 20260906085924 | 56 | 127 | 0.0 | 2.0 | 0.00 | 0.00 | 0.00 | 99 | 1019.3 |
| 20260906085423 | 56 | 95 | 0.0 | 2.0 | 0.00 | 0.00 | 0.00 | 99 | 1019.5 |
| 20260906084923 | 56 | 89 | 0.0 | 2.0 | 0.00 | 0.00 | 0.00 | 98 | 1019.4 |
| 20260906084418 | 56 | 72 | 0.0 | 1.0 | 0.00 | 0.00 | 0.00 | 99 | 1019.4 |
| 20260906083917 | 56 | 98 | 1.0 | 1.0 | 0.00 | 0.00 | 0.00 | 98 | 1019.4 |
| 20260906083413 | 56 | 89 | 0.0 | 1.0 | 0.00 | 0.00 | 0.00 | 98 | 1019.3 |
| 20260906082912 | 56 | 104 | 0.0 | 2.0 | 0.00 | 0.00 | 0.00 | 98 | 1019.2 |
| 20260906082407 | 56 | 116 | 0.0 | 2.0 | 0.00 | 0.00 | 0.00 | 98 | 1019.4 |
| 20260906081903 | 56 | 76 | 0.0 | 1.0 | 0.00 | 0.00 | 0.00 | 98 | 1019.4 |
| 20260906081358 | 57 | 106 | 0.0 | 2.0 | 0.00 | 0.00 | 0.00 | 98 | 1019.3 |
| 20260906080854 | 57 | 89 | 1.0 | 2.0 | 0.00 | 0.00 | 0.00 | 98 | 1019.2 |
| 20260906080351 | 57 | 82 | 1.0 | 2.0 | 0.00 | 0.00 | 0.00 | 98 | 1019.1 |
| 20260906075849 | 56 | 111 | 0.0 | 2.0 | 0.00 | 0.00 | 0.00 | 98 | 1019.1 |
| 20260906075345 | 56 | 71 | 1.0 | 2.0 | 0.00 | 0.00 | 0.00 | 98 | 1019.3 |
| 20260906074840 | 57 | 101 | 0.0 | 1.0 | 0.00 | 0.00 | 0.00 | 98 | 1019.2 |
| 20260906074340 | 57 | 79 | 0.0 | 1.0 | 0.00 | 0.00 | 0.00 | 98 | 1019.1 |
| 20260906073839 | 57 | 89 | 0.0 | 2.0 | 0.00 | 0.00 | 0.00 | 98 | 1019.0 |
| 20260906073334 | 57 | 129 | 0.0 | 2.0 | 0.00 | 0.00 | 0.00 | 98 | 1019.1 |
| 20260906072831 | 57 | 60 | 0.0 | 1.0 | 0.00 | 0.00 | 0.00 | 98 | 1019.0 |
| 20260906072326 | 57 | 75 | 0.0 | 2.0 | 0.00 | 0.00 | 0.00 | 98 | 1019.1 |
| 20260906071822 | 57 | 75 | 0.0 | 1.0 | 0.00 | 0.00 | 0.00 | 98 | 1019.1 |
| 20260906071322 | 57 | 75 | 0.0 | 2.0 | 0.00 | 0.00 | 0.00 | 98 | 1019.2 |
| 20260906070818 | 57 | 89 | 0.0 | 1.0 | 0.00 | 0.00 | 0.00 | 98 | 1019.1 |
| 20260906070314 | 57 | 34 | 0.0 | 1.0 | 0.00 | 0.00 | 0.00 | 98 | 1019.1 |
| 20260906065808 | 56 | 129 | 0.0 | 1.0 | 0.00 | 0.00 | 0.00 | 98 | 1018.9 |
| 20260906065305 | 56 | 86 | 1.0 | 1.0 | 0.00 | 0.00 | 0.00 | 97 | 1019.1 |
| 20260906064759 | 56 | 75 | 0.0 | 1.0 | 0.00 | 0.00 | 0.00 | 97 | 1019.1 |
| 20260906064255 | 56 | 129 | 0.0 | 1.0 | 0.00 | 0.00 | 0.00 | 97 | 1019.0 |
| 20260906063749 | 56 | 50 | 0.0 | 1.0 | 0.00 | 0.00 | 0.00 | 97 | 1019.1 |
| 20260906063245 | 56 | 117 | 0.0 | 0.0 | 0.00 | 0.00 | 0.00 | 97 | 1019.0 |
| 20260906062740 | 56 | 37 | 0.0 | 0.0 | 0.00 | 0.00 | 0.00 | 97 | 1019.0 |
| 20260906062239 | 57 | 60 | 0.0 | 1.0 | 0.00 | 0.00 | 0.00 | 97 | 1018.9 |
| 20260906061735 | 57 | 119 | 0.0 | 1.0 | 0.00 | 0.00 | 0.00 | 97 | 1018.9 |
| 20260906061231 | 57 | 119 | 0.0 | 1.0 | 0.00 | 0.00 | 0.00 | 97 | 1018.7 |
| 20260906060726 | 57 | 106 | 0.0 | 1.0 | 0.00 | 0.00 | 0.00 | 97 | 1018.8 |
| 20260906060224 | 57 | 99 | 1.0 | 1.0 | 0.00 | 0.00 | 0.00 | 97 | 1018.9 |
| 20260906055719 | 57 | 55 | 0.0 | 1.0 | 0.00 | 0.00 | 0.00 | 97 | 1018.7 |
| 20260906055214 | 57 | 85 | 1.0 | 1.0 | 0.00 | 0.00 | 0.00 | 97 | 1018.6 |
| 20260906054709 | 57 | 50 | 0.0 | 1.0 | 0.00 | 0.00 | 0.00 | 97 | 1018.9 |
| 20260906054204 | 58 | 83 | 1.0 | 2.0 | 0.00 | 0.00 | 0.00 | 97 | 1018.7 |
| 20260906053701 | 58 | 103 | 1.0 | 2.0 | 0.00 | 0.00 | 0.00 | 97 | 1018.6 |
| 20260906053156 | 58 | 83 | 1.0 | 2.0 | 0.00 | 0.00 | 0.00 | 97 | 1018.6 |
| 20260906052651 | 57 | 84 | 1.0 | 3.0 | 0.00 | 0.00 | 0.00 | 97 | 1018.8 |
| 20260906052148 | 57 | 102 | 0.0 | 1.0 | 0.00 | 0.00 | 0.00 | 97 | 1018.9 |
| 20260906051644 | 57 | 110 | 0.0 | 0.0 | 0.00 | 0.00 | 0.00 | 96 | 1018.8 |
| 20260906051143 | 58 | 101 | 1.0 | 2.0 | 0.00 | 0.00 | 0.00 | 96 | 1018.8 |
| 20260906050639 | 58 | 62 | 0.0 | 1.0 | 0.00 | 0.00 | 0.00 | 96 | 1018.9 |
| 20260906050134 | 58 | 86 | 2.0 | 2.0 | 0.00 | 0.00 | 0.00 | 96 | 1018.9 |
| 20260906045632 | 58 | 93 | 1.0 | 2.0 | 0.00 | 0.00 | 0.00 | 96 | 1018.9 |
| 20260906045128 | 58 | 86 | 1.0 | 2.0 | 0.00 | 0.00 | 0.00 | 96 | 1018.9 |
| 20260906044624 | 58 | 114 | 1.0 | 1.0 | 0.00 | 0.00 | 0.00 | 96 | 1019.0 |
| 20260906044119 | 58 | 89 | 0.0 | 2.0 | 0.00 | 0.00 | 0.00 | 96 | 1018.9 |
| 20260906043615 | 58 | 101 | 0.0 | 2.0 | 0.00 | 0.00 | 0.00 | 95 | 1019.0 |
| 20260906043110 | 58 | 113 | 0.0 | 1.0 | 0.00 | 0.00 | 0.00 | 95 | 1018.7 |
| 20260906042609 | 58 | 89 | 0.0 | 1.0 | 0.00 | 0.00 | 0.00 | 95 | 1018.8 |
| 20260906042104 | 58 | 84 | 0.0 | 1.0 | 0.00 | 0.00 | 0.00 | 95 | 1018.7 |
| 20260906041600 | 58 | 79 | 1.0 | 1.0 | 0.00 | 0.00 | 0.00 | 95 | 1018.6 |
| 20260906041055 | 59 | 89 | 0.0 | 2.0 | 0.00 | 0.00 | 0.00 | 95 | 1018.6 |
| 20260906040550 | 59 | 104 | 0.0 | 1.0 | 0.00 | 0.00 | 0.00 | 95 | 1018.7 |
| 20260906040045 | 59 | 104 | 0.0 | 1.0 | 0.00 | 0.00 | 0.00 | 95 | 1018.6 |
| 20260906035541 | 59 | 62 | 0.0 | 1.0 | 0.00 | 0.00 | 0.00 | 94 | 1018.4 |
| 20260906035037 | 59 | 50 | 0.0 | 1.0 | 0.00 | 0.00 | 0.00 | 94 | 1018.4 |
| 20260906034536 | 59 | 72 | 0.0 | 1.0 | 0.00 | 0.00 | 0.00 | 94 | 1018.2 |
| 20260906034031 | 60 | 71 | 0.0 | 2.0 | 0.00 | 0.00 | 0.00 | 94 | 1018.2 |
| 20260906033526 | 60 | 49 | 0.0 | 1.0 | 0.00 | 0.00 | 0.00 | 94 | 1018.4 |
| 20260906033021 | 60 | 76 | 0.0 | 1.0 | 0.00 | 0.00 | 0.00 | 93 | 1018.2 |
| 20260906032513 | 60 | 75 | 0.0 | 1.0 | 0.00 | 0.00 | 0.00 | 93 | 1018.3 |
| 20260906032013 | 60 | 103 | 0.0 | 1.0 | 0.00 | 0.00 | 0.00 | 93 | 1018.5 |
| 20260906031508 | 60 | 79 | 1.0 | 1.0 | 0.00 | 0.00 | 0.00 | 93 | 1018.4 |
| 20260906030957 | 60 | 135 | 1.0 | 1.0 | 0.00 | 0.00 | 0.00 | 93 | 1018.4 |
| 20260906030452 | 61 | 104 | 0.0 | 1.0 | 0.00 | 0.00 | 0.00 | 92 | 1018.5 |
| 20260906025952 | 61 | 83 | 1.0 | 1.0 | 0.00 | 0.00 | 0.00 | 92 | 1018.5 |
| 20260906025446 | 61 | 114 | 0.0 | 1.0 | 0.00 | 0.00 | 0.00 | 92 | 1018.3 |
| 20260906024945 | 61 | 75 | 0.0 | 1.0 | 0.00 | 0.00 | 0.00 | 92 | 1018.4 |
| 20260906024444 | 61 | 104 | 0.0 | 2.0 | 0.00 | 0.00 | 0.00 | 92 | 1018.4 |
| 20260906023939 | 61 | 95 | 1.0 | 1.0 | 0.00 | 0.00 | 0.00 | 92 | 1018.3 |
| 20260906023435 | 62 | 89 | 0.0 | 1.0 | 0.00 | 0.00 | 0.00 | 91 | 1018.2 |
| 20260906022930 | 62 | 62 | 0.0 | 1.0 | 0.00 | 0.00 | 0.00 | 91 | 1018.2 |
| 20260906022426 | 62 | 75 | 0.0 | 1.0 | 0.00 | 0.00 | 0.00 | 90 | 1018.4 |
| 20260906021921 | 63 | 62 | 0.0 | 2.0 | 0.00 | 0.00 | 0.00 | 90 | 1018.3 |
| 20260906021421 | 62 | 61 | 1.0 | 1.0 | 0.00 | 0.00 | 0.00 | 90 | 1018.1 |
| 20260906020920 | 63 | 44 | 0.0 | 1.0 | 0.00 | 0.00 | 0.00 | 89 | 1018.0 |
| 20260906020415 | 63 | 75 | 0.0 | 1.0 | 0.00 | 0.00 | 0.00 | 89 | 1018.3 |
| 20260906015904 | 64 | 62 | 0.0 | 0.0 | 0.00 | 0.00 | 0.00 | 88 | 1018.2 |
| 20260906015403 | 64 | 62 | 0.0 | 1.0 | 0.00 | 0.00 | 0.00 | 88 | 1018.2 |
| 20260906014903 | 64 | 89 | 0.0 | 2.0 | 0.00 | 0.00 | 0.00 | 87 | 1018.3 |
| 20260906014357 | 64 | 99 | 0.0 | 1.0 | 0.00 | 0.00 | 0.00 | 87 | 1018.1 |
| 20260906013853 | 65 | 66 | 0.0 | 1.0 | 0.00 | 0.00 | 0.00 | 86 | 1018.3 |
| 20260906013349 | 65 | 89 | 0.0 | 2.0 | 0.00 | 0.00 | 0.00 | 85 | 1018.1 |
| 20260906012844 | 65 | 96 | 0.0 | 1.0 | 0.00 | 0.00 | 0.00 | 84 | 1018.1 |
| 20260906012339 | 66 | 113 | 0.0 | 1.0 | 0.00 | 0.00 | 0.00 | 84 | 1018.2 |
| 20260906011839 | 66 | 104 | 0.0 | 1.0 | 0.00 | 0.00 | 0.00 | 83 | 1017.7 |
| 20260906011333 | 66 | 71 | 1.0 | 3.0 | 0.00 | 0.00 | 0.00 | 83 | 1017.9 |
| 20260906010829 | 67 | 104 | 0.0 | 1.0 | 0.00 | 0.00 | 0.00 | 83 | 1017.7 |
| 20260906010326 | 67 | 62 | 0.0 | 2.0 | 0.00 | 0.00 | 0.00 | 83 | 1017.7 |
| 20260906005821 | 67 | 63 | 2.0 | 3.0 | 0.00 | 0.00 | 0.00 | 82 | 1017.7 |
| 20260906005320 | 68 | 76 | 2.0 | 3.0 | 0.00 | 0.00 | 0.00 | 81 | 1017.6 |
| 20260906004819 | 68 | 91 | 1.0 | 3.0 | 0.00 | 0.00 | 0.00 | 81 | 1017.8 |
| 20260906004319 | 68 | 82 | 2.0 | 4.0 | 0.00 | 0.00 | 0.00 | 80 | 1017.6 |
| 20260906003814 | 68 | 343 | 0.0 | 3.0 | 0.00 | 0.00 | 0.00 | 80 | 1017.5 |
| 20260906003309 | 68 | 80 | 0.0 | 2.0 | 0.00 | 0.00 | 0.00 | 82 | 1017.5 |
| 20260906002805 | 69 | 83 | 1.0 | 2.0 | 0.00 | 0.00 | 0.00 | 81 | 1017.3 |
| 20260906002306 | 69 | 59 | 3.0 | 4.0 | 0.00 | 0.00 | 0.00 | 80 | 1017.0 |
| 20260906001800 | 69 | 61 | 1.0 | 3.0 | 0.00 | 0.00 | 0.00 | 81 | 1017.1 |
| 20260906001255 | 69 | 354 | 1.0 | 3.0 | 0.00 | 0.00 | 0.00 | 81 | 1017.1 |
| 20260906000750 | 69 | 230 | 0.0 | 3.0 | 0.00 | 0.00 | 0.00 | 80 | 1017.3 |
| 20260906000244 | 70 | 95 | 1.0 | 2.0 | 0.00 | 0.00 | 0.00 | 80 | 1017.0 |
| 20260905235739 | 71 | 75 | 0.0 | 2.0 | 0.00 | 0.00 | 0.00 | 79 | 1016.8 |
| 20260905235239 | 71 | 77 | 1.0 | 5.0 | 0.00 | 0.00 | 0.00 | 78 | 1016.9 |
| 20260905234734 | 71 | 57 | 2.0 | 4.0 | 0.00 | 0.00 | 0.00 | 78 | 1016.8 |
| 20260905234230 | 71 | 117 | 0.0 | 1.0 | 0.00 | 0.00 | 0.00 | 77 | 1016.7 |
| 20260905233725 | 72 | 89 | 0.0 | 2.0 | 0.00 | 0.00 | 0.00 | 76 | 1016.7 |
| 20260905233224 | 72 | 28 | 0.0 | 4.0 | 0.00 | 0.00 | 0.00 | 74 | 1016.8 |
| 20260905232719 | 72 | 338 | 2.0 | 3.0 | 0.00 | 0.00 | 0.00 | 74 | 1016.7 |
| 20260905232215 | 73 | 308 | 4.0 | 4.0 | 0.00 | 0.00 | 0.00 | 73 | 1016.7 |
| 20260905231711 | 73 | 21 | 2.0 | 3.0 | 0.00 | 0.00 | 0.00 | 72 | 1016.6 |
| 20260905231206 | 73 | 76 | 2.0 | 3.0 | 0.00 | 0.00 | 0.00 | 72 | 1016.9 |
| 20260905230702 | 74 | 200 | 0.0 | 4.0 | 0.00 | 0.00 | 0.00 | 72 | 1016.8 |
| 20260905230200 | 74 | 61 | 1.0 | 1.0 | 0.00 | 0.00 | 0.00 | 73 | 1016.8 |
| 20260905225659 | 74 | 40 | 2.0 | 2.0 | 0.00 | 0.00 | 0.00 | 72 | 1016.6 |
| 20260905225154 | 74 | 15 | 1.0 | 4.0 | 0.00 | 0.00 | 0.00 | 71 | 1016.7 |
| 20260905224653 | 74 | 78 | 2.0 | 3.0 | 0.00 | 0.00 | 0.00 | 69 | 1016.8 |
| 20260905224148 | 75 | 26 | 0.0 | 4.0 | 0.00 | 0.00 | 0.00 | 68 | 1016.7 |
| 20260905223645 | 76 | 73 | 1.0 | 3.0 | 0.00 | 0.00 | 0.00 | 70 | 1016.6 |
| 20260905223142 | 76 | 77 | 3.0 | 5.0 | 0.00 | 0.00 | 0.00 | 66 | 1016.4 |
| 20260905222637 | 77 | 137 | 0.0 | 3.0 | 0.00 | 0.00 | 0.00 | 67 | 1016.4 |
| 20260905222132 | 78 | 44 | 1.0 | 2.0 | 0.00 | 0.00 | 0.00 | 65 | 1016.3 |
| 20260905221627 | 78 | 111 | 2.0 | 4.0 | 0.00 | 0.00 | 0.00 | 64 | 1016.3 |
| 20260905221124 | 79 | 80 | 3.0 | 4.0 | 0.00 | 0.00 | 0.00 | 62 | 1016.2 |
| 20260905220619 | 78 | 8 | 1.0 | 7.0 | 0.00 | 0.00 | 0.00 | 64 | 1016.1 |
| 20260905220115 | 78 | 70 | 1.0 | 5.0 | 0.00 | 0.00 | 0.00 | 67 | 1016.2 |
| 20260905215615 | 78 | 47 | 3.0 | 4.0 | 0.00 | 0.00 | 0.00 | 65 | 1016.1 |
| 20260905215111 | 78 | 66 | 0.0 | 6.0 | 0.00 | 0.00 | 0.00 | 64 | 1016.3 |
| 20260905214607 | 80 | 2 | 0.0 | 4.0 | 0.00 | 0.00 | 0.00 | 62 | 1016.4 |
| 20260905214106 | 79 | 38 | 0.0 | 4.0 | 0.00 | 0.00 | 0.00 | 63 | 1016.2 |
| 20260905213601 | 78 | 315 | 3.0 | 6.0 | 0.00 | 0.00 | 0.00 | 61 | 1016.4 |
| 20260905213056 | 78 | 305 | 5.0 | 6.0 | 0.00 | 0.00 | 0.00 | 61 | 1016.3 |
| 20260905212551 | 79 | 339 | 2.0 | 3.0 | 0.00 | 0.00 | 0.00 | 64 | 1016.2 |
| 20260905212051 | 79 | 78 | 2.0 | 4.0 | 0.00 | 0.00 | 0.00 | 63 | 1016.4 |
| 20260905211546 | 79 | 20 | 1.0 | 5.0 | 0.00 | 0.00 | 0.00 | 62 | 1016.2 |
| 20260905211042 | 79 | 56 | 1.0 | 4.0 | 0.00 | 0.00 | 0.00 | 63 | 1016.2 |
| 20260905210537 | 79 | 185 | 3.0 | 4.0 | 0.00 | 0.00 | 0.00 | 62 | 1016.2 |
| 20260905210032 | 78 | 101 | 3.0 | 4.0 | 0.00 | 0.00 | 0.00 | 66 | 1016.3 |
| 20260905205531 | 79 | 112 | 2.0 | 7.0 | 0.00 | 0.00 | 0.00 | 64 | 1016.2 |
| 20260905205030 | 78 | 310 | 3.0 | 6.0 | 0.00 | 0.00 | 0.00 | 64 | 1016.2 |
| 20260905204526 | 79 | 59 | 2.0 | 6.0 | 0.00 | 0.00 | 0.00 | 66 | 1016.3 |
| 20260905204020 | 80 | 66 | 3.0 | 4.0 | 0.00 | 0.00 | 0.00 | 65 | 1016.2 |
| 20260905203515 | 80 | 337 | 4.0 | 4.0 | 0.00 | 0.00 | 0.00 | 63 | 1016.1 |
| 20260905203010 | 80 | 357 | 2.0 | 7.0 | 0.00 | 0.00 | 0.00 | 65 | 1016.3 |
| 20260905202506 | 80 | 326 | 3.0 | 4.0 | 0.00 | 0.00 | 0.00 | 61 | 1016.1 |
| 20260905202001 | 81 | 123 | 0.0 | 3.0 | 0.00 | 0.00 | 0.00 | 66 | 1016.1 |
| 20260905201456 | 80 | 106 | 2.0 | 3.0 | 0.00 | 0.00 | 0.00 | 63 | 1016.3 |
| 20260905200955 | 80 | 306 | 3.0 | 5.0 | 0.00 | 0.00 | 0.00 | 64 | 1016.3 |
| 20260905200452 | 80 | 14 | 4.0 | 5.0 | 0.00 | 0.00 | 0.00 | 64 | 1016.3 |
| 20260905195950 | 80 | 3 | 2.0 | 7.0 | 0.00 | 0.00 | 0.00 | 63 | 1016.3 |
| 20260905195445 | 80 | 118 | 2.0 | 5.0 | 0.00 | 0.00 | 0.00 | 63 | 1016.5 |
| 20260905194941 | 80 | 355 | 1.0 | 7.0 | 0.00 | 0.00 | 0.00 | 63 | 1016.3 |
| 20260905194440 | 79 | 30 | 1.0 | 5.0 | 0.00 | 0.00 | 0.00 | 66 | 1016.3 |
| 20260905193935 | 80 | 332 | 3.0 | 4.0 | 0.00 | 0.00 | 0.00 | 64 | 1016.4 |
| 20260905193435 | 79 | 283 | 0.0 | 4.0 | 0.00 | 0.00 | 0.00 | 70 | 1016.3 |
| 20260905192930 | 78 | 33 | 3.0 | 4.0 | 0.00 | 0.00 | 0.00 | 66 | 1016.5 |
| 20260905192425 | 77 | 49 | 1.0 | 2.0 | 0.00 | 0.00 | 0.00 | 70 | 1016.6 |
| 20260905191921 | 77 | 315 | 1.0 | 3.0 | 0.00 | 0.00 | 0.00 | 66 | 1016.6 |
| 20260905191420 | 78 | 327 | 2.0 | 5.0 | 0.00 | 0.00 | 0.00 | 66 | 1016.6 |
| 20260905190914 | 78 | 353 | 0.0 | 2.0 | 0.00 | 0.00 | 0.00 | 69 | 1016.7 |
| 20260905190412 | 77 | 74 | 0.0 | 4.0 | 0.00 | 0.00 | 0.00 | 71 | 1016.8 |
| 20260905185911 | 77 | 317 | 2.0 | 3.0 | 0.00 | 0.00 | 0.00 | 68 | 1016.6 |
| 20260905185406 | 78 | 32 | 0.0 | 2.0 | 0.00 | 0.00 | 0.00 | 70 | 1016.6 |
| 20260905184905 | 78 | 114 | 0.0 | 3.0 | 0.00 | 0.00 | 0.00 | 68 | 1016.7 |
| 20260905184359 | 79 | 327 | 3.0 | 5.0 | 0.00 | 0.00 | 0.00 | 69 | 1016.7 |
| 20260905183857 | 78 | 318 | 2.0 | 4.0 | 0.00 | 0.00 | 0.00 | 70 | 1016.8 |